sat.trackr.live / text

‹ back to catalog

STARLINK-32822

NORAD 62868 · 2025-022Q

PAYLOAD ACTIVE UNKNOWN

§ Identity

Operator
Country
US
Launch date
2025-02-01
Launch site
AFWTR
Launch vehicle
Mass (kg)
RCS (m²)

Purposes: comms

External: N2YO · Heavens-Above · Gunter

§ Orbital elements

Epoch: 2026-09-21T03:44:39.259680Z

Period
93.85 min
Inclination
53.1601°
Eccentricity
0.0001490
Mean motion
15.34400031 rev/d
Perigee alt
461.7 km
Apogee alt
463.7 km
Semi-major
6,840.8 km
B*
3.0579e-4
RAAN
298.3784°
Arg perigee
88.9083°
Mean anomaly
271.2090°
Rev number
9,187

§ Raw data

STARLINK-328221 62868U 25022Q   26264.15600995  .00009969  00000+0  30579-3 0  99952 62868  53.1601 298.3784 0001490  88.9083 271.2090 15.34400031 91876

JSON: /api/v1/satellites/62868 · /tle

For live sub-satellite position, see the globe view (requires WebGL).

§ Visibility from observer

Set your observer location to see the next 7 days of passes ≥ 10°. The values pass through the URL so the page stays shareable.

No JS? Fill the form by hand. The geolocation button needs JavaScript.